HTV-X 1

Last updated on Tue Oct 28 2025 00:02:08 GMT+0000 (Coordinated Universal Time)

1 66174U 25241A 25300.49424941 .00010095 00000+0 16773-3 0 9996 2 66174 51.6338 11.4824 0004046 344.0379 16.0483 15.52723727 245
UTC large
Height (km)
Speed (km/s)
/
Latitude / Longitude
Inclination (degrees)
Orbital Period (minutes)
Azimuth
Elevation
Range (km)
Doppler Factor

Next 0 passes for location: London (51.5072 / 0.1276)

Sorry there are no passes over London.
HTV-X 1